DECAYED

FALCON 9 R/B, 64785 (Decayed)

Orbit data source: Space-Track

FALCON 9 R/B, 64785 was space debris in HEO originally from a launch on Sun, 13 Jul 2025 UTC launched from the Air Force Eastern Test Range (AFETR). Debris objects in space refer to the collection of defunct objects orbiting the Earth. Examples of debris include non-operational satellites, rocket bodies, and fragments generated from explosions, collisions, or faulty payload assembly.

Loading next visibility...
Identifier
64785, 2025-148B
Orbit
Decayed
Country
Flag of USUS
Related business
Manufacturer
SpaceX
Mission
Decayed spacecraft
Bus & Motor
F9ST2, Unknown motor
Mass
~4,000 kg wet, ~4,000 kg dry
Launch date (UTC)
2025-07-13 (11 months ago)
Launch vehicle
Unknown
Launch site
Air Force Eastern Test Range (AFETR)
Object type
Payload
Rocket body
Debris
Shape & HBR
Cyl, 1.1 m
Radar Cross Section
39.980 m²

Expand to show TLE details & history
Last TLE update: 11 months ago

TLE from 11 months ago
0 FALCON 9 R/B
1 64785U 25148B   25194.70547699 -.00001371  13459-5  00000+0 0  9997
2 64785  24.2242 199.2265 8239362 180.4148 205.8732  1.20298853    06
Epoch: 2025-07-13T16:55Z
TLE epoch observation values (Epoch: 2025-07-13T16:55:53.211Z)
Latitude
1.98039°
Longitude
17.87368°
Altitude
60,726.117 km
Speed
1.098 km/s
True Right ascension
13h 34m 40s
True Declination
1° 58' 45"
Sunlit
Object was in daylight at epoch
Visualization orbit readout
Latitude
Unknown
Longitude
Unknown
Altitude
Unknown
Speed
Unknown
Apparent Right ascension
Unknown
Apparent Declination
Unknown
Sunlit
N/A
Visualization observer readout
Local Sidereal Time
07:23:28
Azimuth
Unknown
Elevation
Unknown
Doppler factor
Unknown
Orbital elements
Apogee altitude
61,744.862 km
Perigee altitude
197.748 km
Semi-major axis
37,349.442 km
Eccentricity
0.82394
Inclination
24.2242°
RAAN
199.2265°
Arg. of periapsis
180.4148°
True anomaly
184.44858°
Mean anomaly
205.8732°
Eccentric anomaly
194.25155°
Mean motion
0.30069 °/min
Orbital period
1,197.25 mins
BSTAR
0
Loading maneuver chart data...
Computing Atmospheric mass density...
Loading historical data...
Loading historical data...
Loading historical data...
Loading historical data...
Loading historical data...
Loading historical data...
Loading historical data...
Other satellites on launch #148 in the year 2025 (2025-07-13 UTC)

Documentation

Showing up to 5 results
|